Vestborg — E5U2070 — position and weather

sailwx.info

Track history (hours):
 
Tides and Currents Weather Stations Pressure Air Temp Water Temp Dewpoint Dewpoint Depression Visibility Wind Speed Wind Dir Waves Ship Positions

Vestborg

Last reported at 2014-Nov-22 13:34 UTC. Time now 2014-Nov-22 14:23 UTC.
Position N 58°24' E 005°60'.

Length 66 m; draft 3.5 m.

Type: Cargo ship. MMSI: 518120000.

Date/timePositionNaut miles runAvg speedWind from/ knotsBaromVisibWave heightAir tempDewpointWater temp
2014-Nov-22 13:34N 58°24' E 005°60'3 2.7
2014-Nov-22 12:33N 58°27' E 005°60'0 0.0
2014-Nov-22 11:33N 58°27' E 005°60'0 0.0
2014-Nov-22 10:34N 58°27' E 005°60'0 0.0
2014-Nov-22 09:33N 58°27' E 005°60'0 0.0
2014-Nov-22 08:34N 58°27' E 005°60'0 0.0
2014-Nov-22 07:34N 58°27' E 005°60'0 0.0
2014-Nov-22 06:34N 58°27' E 005°60'0 0.0
2014-Nov-22 05:34N 58°27' E 005°60'0 0.0
2014-Nov-22 04:33N 58°27' E 005°60'0 0.0
2014-Nov-22 03:33N 58°27' E 005°60'0 0.0
2014-Nov-22 02:33N 58°27' E 005°60'0 0.0
2014-Nov-22 01:33N 58°27' E 005°60'0 0.0
2014-Nov-22 00:33N 58°27' E 005°60'0 0.0
2014-Nov-21 23:33N 58°27' E 005°60'0 0.0
2014-Nov-21 22:34N 58°27' E 005°60'0 0.0
2014-Nov-21 21:33N 58°27' E 005°60'0 0.0
2014-Nov-21 20:34N 58°27' E 005°60'0 0.0
2014-Nov-21 19:33N 58°27' E 005°60'0 0.0
2014-Nov-21 18:33N 58°27' E 005°60'0 0.0
2014-Nov-21 17:34N 58°27' E 005°60'0 0.4
2014-Nov-21 16:34N 58°27' E 005°59'9 8.9
2014-Nov-21 15:33N 58°19' E 006°07'8 7.9
2014-Nov-21 14:33N 58°13' E 006°17'9 8.9
2014-Nov-21 13:33N 58°07' E 006°29'56 8.9
2014-Nov-21 07:18N 58°04' E 008°14'810.5
2014-Nov-21 06:33N 58°08' E 008°27'1110.8
2014-Nov-21 05:33N 58°14' E 008°44'  
2014-Nov-18 17:25N 58°47' E 010°47'7 8.2
2014-Nov-18 16:33N 58°41' E 010°50'9 8.5
2014-Nov-18 15:33N 58°32' E 010°53'9 9.1
2014-Nov-18 14:33N 58°23' E 010°58'9 9.3
2014-Nov-18 13:33N 58°14' E 011°01'30 4.1
2014-Nov-18 06:20N 57°46' E 010°42'136 4.3
2014-Nov-16 22:31N 58°06' E 006°29'6 5.7
2014-Nov-16 21:33N 58°10' E 006°21'5 5.2
2014-Nov-16 20:34N 58°12' E 006°13'6 6.3
2014-Nov-16 19:33N 58°17' E 006°05'6 6.3
2014-Nov-16 18:33N 58°21' E 005°56'6 6.1
2014-Nov-16 17:33N 58°25' E 005°47'5 5.0
2014-Nov-16 16:32N 58°29' E 005°40'4 4.3
2014-Nov-16 15:30N 58°33' E 005°36'16 5.4
2014-Nov-16 12:33N 58°47' E 005°23'7 6.9
2014-Nov-16 11:33N 58°54' E 005°21'7 7.0
2014-Nov-16 10:33N 59°01' E 005°19'7 7.5
2014-Nov-16 09:33N 59°08' E 005°20'10 8.3
2014-Nov-16 08:18N 59°19' E 005°20'6 7.7
2014-Nov-16 07:33N 59°24' E 005°16'277 6.3
2014-Nov-14 11:19N 63°36' E 009°16'82 7.6
2014-Nov-14 00:33N 64°45' E 010°59'8 8.0
2014-Nov-13 23:33N 64°51' E 011°12'7 7.4
2014-Nov-13 22:33N 64°56' E 011°25'8 8.0
2014-Nov-13 21:33N 65°01' E 011°40'8 8.0
2014-Nov-13 20:33N 65°08' E 011°49'8 7.9
2014-Nov-13 19:32N 65°15' E 011°56'70 7.4
2014-Nov-13 10:09N 66°20' E 012°57'4 6.8
2014-Nov-13 09:32N 66°24' E 012°59'37 7.3
2014-Nov-13 04:28N 66°59' E 013°34'9 8.1
2014-Nov-13 03:22N 67°04' E 013°53'6 7.6
2014-Nov-13 02:33N 67°09' E 014°02'8 7.5
2014-Nov-13 01:33N 67°15' E 014°11'8 8.0
2014-Nov-13 00:33N 67°22' E 014°23'7 7.5
2014-Nov-12 23:33N 67°29' E 014°28'8 7.8
2014-Nov-12 22:33N 67°37' E 014°31'  
Track history (hours):
 
Tides and Currents Weather Stations Pressure Air Temp Water Temp Dewpoint Dewpoint Depression Visibility Wind Speed Wind Dir Waves Ship Positions

Vestborg

Last reported at 2014-Nov-22 13:34 UTC. Time now 2014-Nov-22 14:23 UTC.
Position N 58°24' E 005°60'.

Length 66 m; draft 3.5 m.

Type: Cargo ship. MMSI: 518120000.

Date/timePositionNaut miles runAvg speedWind from/ knotsBaromVisibWave heightAir tempDewpointWater temp
2014-Nov-22 13:34N 58°24' E 005°60'3 2.7
2014-Nov-22 12:33N 58°27' E 005°60'0 0.0
2014-Nov-22 11:33N 58°27' E 005°60'0 0.0
2014-Nov-22 10:34N 58°27' E 005°60'0 0.0
2014-Nov-22 09:33N 58°27' E 005°60'0 0.0
2014-Nov-22 08:34N 58°27' E 005°60'0 0.0
2014-Nov-22 07:34N 58°27' E 005°60'0 0.0
2014-Nov-22 06:34N 58°27' E 005°60'0 0.0
2014-Nov-22 05:34N 58°27' E 005°60'0 0.0
2014-Nov-22 04:33N 58°27' E 005°60'0 0.0
2014-Nov-22 03:33N 58°27' E 005°60'0 0.0
2014-Nov-22 02:33N 58°27' E 005°60'0 0.0
2014-Nov-22 01:33N 58°27' E 005°60'0 0.0
2014-Nov-22 00:33N 58°27' E 005°60'0 0.0
2014-Nov-21 23:33N 58°27' E 005°60'0 0.0
2014-Nov-21 22:34N 58°27' E 005°60'0 0.0
2014-Nov-21 21:33N 58°27' E 005°60'0 0.0
2014-Nov-21 20:34N 58°27' E 005°60'0 0.0
2014-Nov-21 19:33N 58°27' E 005°60'0 0.0
2014-Nov-21 18:33N 58°27' E 005°60'0 0.0
2014-Nov-21 17:34N 58°27' E 005°60'0 0.4
2014-Nov-21 16:34N 58°27' E 005°59'9 8.9
2014-Nov-21 15:33N 58°19' E 006°07'8 7.9
2014-Nov-21 14:33N 58°13' E 006°17'9 8.9
2014-Nov-21 13:33N 58°07' E 006°29'56 8.9
2014-Nov-21 07:18N 58°04' E 008°14'810.5
2014-Nov-21 06:33N 58°08' E 008°27'1110.8
2014-Nov-21 05:33N 58°14' E 008°44'  
2014-Nov-18 17:25N 58°47' E 010°47'7 8.2
2014-Nov-18 16:33N 58°41' E 010°50'9 8.5
2014-Nov-18 15:33N 58°32' E 010°53'9 9.1
2014-Nov-18 14:33N 58°23' E 010°58'9 9.3
2014-Nov-18 13:33N 58°14' E 011°01'30 4.1
2014-Nov-18 06:20N 57°46' E 010°42'136 4.3
2014-Nov-16 22:31N 58°06' E 006°29'6 5.7
2014-Nov-16 21:33N 58°10' E 006°21'5 5.2
2014-Nov-16 20:34N 58°12' E 006°13'6 6.3
2014-Nov-16 19:33N 58°17' E 006°05'6 6.3
2014-Nov-16 18:33N 58°21' E 005°56'6 6.1
2014-Nov-16 17:33N 58°25' E 005°47'5 5.0
2014-Nov-16 16:32N 58°29' E 005°40'4 4.3
2014-Nov-16 15:30N 58°33' E 005°36'16 5.4
2014-Nov-16 12:33N 58°47' E 005°23'7 6.9
2014-Nov-16 11:33N 58°54' E 005°21'7 7.0
2014-Nov-16 10:33N 59°01' E 005°19'7 7.5
2014-Nov-16 09:33N 59°08' E 005°20'10 8.3
2014-Nov-16 08:18N 59°19' E 005°20'6 7.7
2014-Nov-16 07:33N 59°24' E 005°16'277 6.3
2014-Nov-14 11:19N 63°36' E 009°16'82 7.6
2014-Nov-14 00:33N 64°45' E 010°59'8 8.0
2014-Nov-13 23:33N 64°51' E 011°12'7 7.4
2014-Nov-13 22:33N 64°56' E 011°25'8 8.0
2014-Nov-13 21:33N 65°01' E 011°40'8 8.0
2014-Nov-13 20:33N 65°08' E 011°49'8 7.9
2014-Nov-13 19:32N 65°15' E 011°56'70 7.4
2014-Nov-13 10:09N 66°20' E 012°57'4 6.8
2014-Nov-13 09:32N 66°24' E 012°59'37 7.3
2014-Nov-13 04:28N 66°59' E 013°34'9 8.1
2014-Nov-13 03:22N 67°04' E 013°53'6 7.6
2014-Nov-13 02:33N 67°09' E 014°02'8 7.5
2014-Nov-13 01:33N 67°15' E 014°11'8 8.0
2014-Nov-13 00:33N 67°22' E 014°23'7 7.5
2014-Nov-12 23:33N 67°29' E 014°28'8 7.8
2014-Nov-12 22:33N 67°37' E 014°31'  

Dump ship's entire track history